EA3KZ-1 Weather Reports


time (UTC)temp
F
wind
direction
speed
knots
gust
knots
rain 1hr
in
rain 24hr
in
rain mn
in
humidity
%
barometer
mb
20260506004604 51 0.0 0.0 0.00 0.33 0.00 85 1006.1
20260506003555 51 211 0.9 1.7 0.00 0.33 0.00 85 1006.3
20260506002552 52 180 0.9 1.7 0.00 0.33 0.00 84 1006.2
20260506001544 53 105 0.9 3.5 0.00 0.33 0.00 85 1006.4
20260506000542 53 0.0 0.0 0.00 0.33 0.00 81 1006.3
20260505235539 53 283 0.9 1.7 0.00 0.33 0.33 82 1006.3
20260505234531 53 262 0.9 3.5 0.00 0.33 0.33 84 1006.4
20260505233528 52 302 0.9 1.7 0.00 0.33 0.33 87 1006.4
20260505232520 52 0 0.0 1.7 0.00 0.33 0.33 88 1006.5
20260505231518 52 230 0.9 1.7 0.00 0.33 0.33 88 1006.3
20260505230515 53 248 0.0 1.7 0.00 0.33 0.33 86 1006.3
20260505225607 53 297 0.9 1.7 0.00 0.33 0.33 85 1006.1
20260505224604 53 230 0.9 1.7 0.00 0.33 0.33 84 1006.5
20260505223557 54 208 0.9 1.7 0.00 0.33 0.33 81 1006.7
20260505222554 55 231 0.9 1.7 0.00 0.33 0.33 80 1006.8
20260505221551 54 267 1.7 3.5 0.00 0.33 0.33 82 1006.8
20260505220543 54 236 1.7 1.7 0.00 0.33 0.33 81 1007.2
20260505215540 54 229 2.6 3.5 0.00 0.33 0.33 80 1007.1
20260505214533 54 225 0.9 3.5 0.00 0.33 0.33 80 1007.1
20260505213530 54 228 0.9 3.5 0.00 0.33 0.33 82 1007.2
20260505212527 53 234 2.6 5.2 0.00 0.33 0.33 84 1007.2
20260505211519 53 233 2.6 3.5 0.00 0.33 0.33 85 1007.2
20260505210516 53 189 1.7 3.5 0.00 0.33 0.33 83 1006.9
20260505205608 54 233 3.5 6.1 0.00 0.33 0.33 83 1006.9
20260505204605 54 229 2.6 3.5 0.00 0.33 0.33 82 1006.7
20260505203603 54 248 1.7 3.5 0.00 0.33 0.33 83 1006.8
20260505203036 54 236 1.7 3.5 0.00 0.33 0.33 83 1006.7
20260505202034 53 234 1.7 3.5 0.00 0.35 0.33 85 1006.6
20260505201031 53 190 0.9 3.5 0.00 0.39 0.33 85 1006.5
20260505200029 54 244 0.9 1.7 0.00 0.39 0.33 84 1006.2
20260505195026 54 224 0.9 1.7 0.00 0.39 0.33 83 1005.9
20260505194023 54 0.0 0.0 0.00 0.40 0.33 82 1005.7
20260505193021 55 243 0.9 1.7 0.00 0.40 0.33 79 1005.6
20260505192018 55 295 2.6 5.2 0.00 0.40 0.33 79 1005.6
20260505191016 55 255 3.5 7.0 0.00 0.40 0.33 81 1005.6
20260505190113 55 248 2.6 3.5 0.00 0.40 0.33 81 1005.8
20260505185110 54 261 1.7 3.5 0.00 0.40 0.33 83 1005.7
20260505184107 54 241 1.7 3.5 0.00 0.40 0.33 84 1005.6
20260505183104 54 237 2.6 5.2 0.00 0.40 0.33 84 1005.6
20260505182101 53 248 2.6 3.5 0.00 0.40 0.33 87 1005.6
20260505181059 53 238 1.7 3.5 0.01 0.40 0.33 90 1005.6
20260505180056 53 231 1.7 3.5 0.01 0.40 0.33 91 1005.5
20260505175054 53 235 0.0 1.7 0.01 0.40 0.33 92 1005.5
20260505174051 53 223 0.9 1.7 0.02 0.40 0.33 91 1005.7
20260505173048 53 205 0.9 3.5 0.02 0.40 0.33 90 1005.6
20260505172046 53 237 5.2 9.6 0.04 0.40 0.33 90 1005.5
20260505171043 53 330 2.6 5.2 0.04 0.39 0.32 91 1005.7
20260505170041 52 348 1.7 3.5 0.05 0.39 0.32 91 1005.9
20260505165038 52 248 0.9 3.5 0.30 0.39 0.32 91 1006.1
20260505164036 51 259 2.6 5.2 0.31 0.38 0.31 89 1006.1
20260505163033 50 293 2.6 6.1 0.31 0.38 0.31 89 1006.0
20260505162030 49 290 4.3 6.1 0.30 0.37 0.30 87 1006.1
20260505161028 50 319 0.9 3.5 0.28 0.35 0.28 88 1006.1
20260505153017 63 29 3.5 9.6 0.00 0.07 0.00 64 1005.0
20260505152014 64 30 2.6 9.6 0.00 0.07 0.00 66 1005.2
20260505151112 64 103 2.6 7.8 0.00 0.07 0.00 66 1005.1
20260505150109 65 125 2.6 7.0 0.00 0.07 0.00 66 1005.0
20260505125036 67 354 1.7 7.0 0.00 0.08 0.00 60 1006.1
20260505124033 67 22 2.6 9.6 0.00 0.08 0.00 62 1006.0
20260505123030 67 114 2.6 5.2 0.00 0.08 0.00 61 1006.3
20260505122027 65 27 3.5 7.8 0.00 0.08 0.00 65 1006.3
20260505121024 67 68 0.9 5.2 0.00 0.08 0.00 62 1006.4
20260505120022 66 107 1.7 3.5 0.00 0.08 0.00 64 1006.3
20260505115019 66 136 1.7 3.5 0.00 0.08 0.00 66 1006.5
20260505114016 67 76 1.7 7.0 0.00 0.08 0.00 60 1006.6
20260505113114 64 25 2.6 6.1 0.00 0.08 0.00 64 1006.7
20260505112112 63 17 0.9 3.5 0.00 0.08 0.00 68 1006.8
20260505111109 64 9 1.7 5.2 0.00 0.08 0.00 69 1007.0
20260505110106 64 135 0.0 1.7 0.00 0.08 0.00 69 1007.1
20260505102056 61 81 2.6 7.8 0.00 0.08 0.00 76 1007.2
20260505101053 63 113 1.7 5.2 0.00 0.08 0.00 69 1007.1
20260505100051 64 100 1.7 5.2 0.00 0.08 0.00 68 1006.8
20260505095048 65 125 0.9 3.5 0.00 0.08 0.00 66 1006.7
20260505094045 62 257 0.0 1.7 0.00 0.08 0.00 74 1006.7
20260505093043 59 295 3.5 6.1 0.00 0.08 0.00 78 1006.7
20260505092039 58 304 4.3 7.8 0.00 0.08 0.00 80 1006.7
20260505091037 56 304 3.5 7.0 0.00 0.08 0.00 83 1006.7
20260505090034 56 197 0.9 3.5 0.00 0.08 0.00 83 1007.2
20260505085031 57 143 1.7 6.1 0.00 0.08 0.00 80 1007.2
20260505084029 58 136 2.6 7.8 0.00 0.08 0.00 77 1007.5
20260505083026 60 117 1.7 7.8 0.00 0.08 0.00 73 1007.1
20260505082024 61 114 0.9 5.2 0.00 0.08 0.00 72 1006.8
20260505081021 62 113 0.9 3.5 0.00 0.08 0.00 72 1006.8
20260505080018 60 0 0.9 3.5 0.00 0.08 0.00 74 1006.8
20260505075016 59 316 2.6 5.2 0.00 0.08 0.00 75 1006.8
20260505074113 60 355 2.6 5.2 0.00 0.08 0.00 71 1006.8
20260505073111 59 128 0.0 1.7 0.00 0.08 0.00 73 1006.9
20260505072108 58 139 3.5 6.1 0.00 0.08 0.00 74 1006.9
20260505071106 57 194 3.5 7.8 0.00 0.08 0.00 75 1006.9
20260505065100 57 113 0.0 3.5 0.00 0.08 0.00 78 1006.9
20260505064058 58 161 0.0 1.7 0.00 0.08 0.00 75 1006.9
20260505063055 59 328 0.0 1.7 0.00 0.08 0.00 75 1006.9
20260505062052 56 226 0.9 3.5 0.00 0.08 0.00 79 1006.7
20260505061049 55 238 0.9 1.7 0.00 0.08 0.00 80 1007.0
20260505060046 54 145 0.9 1.7 0.00 0.08 0.00 83 1007.0
20260505055044 53 153 1.7 3.5 0.00 0.08 0.00 83 1007.2
20260505054041 53 121 0.9 3.5 0.00 0.08 0.00 82 1007.2
20260505053039 54 52 0.9 1.7 0.00 0.08 0.00 81 1006.8
20260505052036 53 353 0.9 1.7 0.00 0.08 0.00 85 1006.8
20260505051034 52 225 0.0 1.7 0.00 0.08 0.00 86 1006.8
20260505041018 51 138 0.9 1.7 0.00 0.08 0.00 89 1007.1
20260505040015 51 153 0.9 1.7 0.00 0.08 0.00 88 1007.1
20260505035113 52 188 0.0 3.5 0.00 0.08 0.00 86 1007.0
20260505034110 53 135 0.0 1.7 0.00 0.08 0.00 84 1007.0
20260505033107 53 129 0.9 1.7 0.00 0.08 0.00 85 1007.0
20260505032105 53 120 0.9 1.7 0.00 0.08 0.00 86 1007.0
20260505031102 53 0.0 0.0 0.00 0.08 0.00 86 1007.0
20260505030059 54 0.0 1.7 0.00 0.08 0.00 84 1007.0
20260505025057 54 45 0.0 1.7 0.00 0.08 0.00 82 1006.8
20260505024054 55 234 0.9 1.7 0.00 0.08 0.00 81 1006.9
20260505023052 55 217 1.7 5.2 0.00 0.08 0.00 82 1007.1
20260505022054 54 199 1.7 3.5 0.00 0.08 0.00 82 1007.1
20260505021047 54 180 0.9 3.5 0.00 0.08 0.00 83 1007.1
20260505020044 54 195 0.9 3.5 0.00 0.08 0.00 83 1006.9
20260505015041 55 196 1.7 3.5 0.00 0.08 0.00 81 1006.8
20260505014039 55 230 2.6 6.1 0.00 0.08 0.00 80 1006.8
20260505013036 54 225 1.7 3.5 0.00 0.08 0.00 83 1007.1
20260505012039 54 274 2.6 5.2 0.00 0.08 0.00 83 1007.1
20260505011031 54 176 4.3 7.0 0.00 0.08 0.00 82 1007.1
20260505010028 54 195 4.3 7.8 0.00 0.08 0.00 83 1007.2
20260505005026 54 167 2.6 6.1 0.00 0.08 0.00 84 1007.2